Regional Weather Roundup
Issued by NWS

Home | Current Version | Previous Version | Text Only | Print | Product List | Glossary Off
Versions: 1 2 3 4 5 6 7 8 9 10 11 12 13 14 15 16 17 18 19 20 21 22 23 24 25 26 27 28 29 30 31 32 33 34 35 36 37 38 39 40 41 42 43 44 45 46 47 48 49 50

000
ASUS45 KBOU 021207
RWRCO

WEATHER ROUNDUP FOR COLORADO
NATIONAL WEATHER SERVICE DENVER/BOULDER CO
500 AM MST MON MAR 02 2015

NOTE: "FAIR" INDICATES FEW OR NO CLOUDS BELOW 12000 FEET WITH NO
SIGNIFICANT WEATHER AND/OR OBSTRUCTIONS TO VISIBILITY.

COZ001>005-013-030-031-021300-
...NORTHWEST COLORADO...

CITY           SKY/WX    TMP DP  RH WIND       PRES   REMARKS
CRAIG          FLURRIES  31  29  92 NE8       29.90F WCI  23
HAYDEN         CLOUDY    28  27  93 SE7       29.90F WCI  21
MEEKER         CLOUDY    30  28  92 CALM      29.88F
MOUNT WERNER   NOT AVBL
STEAMBOAT SPGS CLOUDY    27  26  96 CALM      29.90F
WALDEN         CLOUDY    28  27  93 CALM      29.90F
$$

COZ006>008-011-021300-
...WEST CENTRAL VALLEYS...

CITY           SKY/WX    TMP DP  RH WIND       PRES   REMARKS
GRAND JUNCTION CLOUDY    35  35 100 CALM      29.88F
MONTROSE       LGT RAIN  43  35  73 SW14G23   29.92F
EAGLE          CLOUDY    30  30 100 CALM      29.96F
RIFLE          LGT RAIN  33  31  92 CALM      29.92F
DELTA          PTCLDY    37  35  95 E7        29.92F
NUCLA          CLOUDY    37  36  93 CALM      29.94F
$$

COZ017>023-064>068-021300-
...SOUTHWEST COLORADO...

CITY           SKY/WX    TMP DP  RH WIND       PRES   REMARKS
DURANGO        CLOUDY    32  31  96 NE3       30.02F FOG
CORTEZ         CLOUDY    39  36  89 NE3       29.96F
PAGOSA SPRINGS CLOUDY    35  35 100 CALM      30.05F
TELLURIDE      CLOUDY    37  25  60 S10G32    29.99F
WOLF CREEK PAS CLOUDY    23  23 100 SW17G36   30.11S WCI   9
$$

COZ009-010-012-014-032>034-037-058>063-021300-
...CENTRAL COLORADO...

CITY           SKY/WX    TMP DP  RH WIND       PRES   REMARKS
ASPEN          LGT SNOW  31  30  96 S3        29.92S FOG
BUENA VISTA    CLOUDY    20  17  88 CALM      30.02S FOG
COPPER MTN     LGT SNOW  27  21  80 S21       29.98F WCI  13
BERTHOUD PASS  LGT SNOW  19  14  79 W13G23    29.99F VSB 1   WCI   7
COTTONWOOD PAS CLOUDY    27  23  86 CALM      29.98F FOG
GUNNISON       CLOUDY    27  23  86 CALM      30.03F
KREMMLING      LGT SNOW  30  28  93 CALM      29.95F VSB 1
LEADVILLE      CLOUDY    20  18  92 CALM      29.96S
SALIDA         CLOUDY    22  18  86 CALM      30.09F
SUNLIGHT       LGT SNOW  30  28  93 S3        29.91  VSB 3/4
WILKERSON PASS LGT SNOW  25  23  93 SW8       30.01S WCI  16
$$

COZ069>075-021300-
...SAN LUIS VALLEY/SANGRE DE CRISTO MOUNTAINS...

CITY           SKY/WX    TMP DP  RH WIND       PRES   REMARKS
ALAMOSA        PTCLDY    34  27  75 S17       30.01S WCI  23
LA VETA PASS   MOCLDY    28  27  93 S14G24    30.06S WCI  17
SAGUACHE       CLOUDY    32  32 100 S3        30.03F
$$

COZ035-036-038>040-021300-
...NORTHERN COLORADO FRONT RANGE...

CITY           SKY/WX    TMP DP  RH WIND       PRES   REMARKS
DENVER INTL AP MOCLDY    18  15  88 SW8       30.02S FOG     WCI   8
DMNS CITY PARK   N/A     19  15  87 SW3       30.01F
AURORA         NOT AVBL
FRONT RANGE AP NOT AVBL
ERIE MUNI ARPT CLOUDY    20  19  93 W3        30.03F FOG
BOULDER MUN AP MOCLDY    19  18  93 W3        30.02F FOG
CENTENNIAL     MOCLDY    14  11  87 W3        30.00F FOG
BROOMFIELD     MOCLDY    19  18  93 NW8       30.01F FOG     WCI   9
FORT COLLINS   MOCLDY    21  18  86 N5        30.05S WCI  15
LONGMONT       CLOUDY    22  18  85 NW5       30.05F WCI  16
$$

COZ041-046-047-076>085-087-088-021300-
...PIKES PEAK/PALMER DIVIDE AND SOUTHERN FOOTHILLS...

CITY           SKY/WX    TMP DP  RH WIND       PRES   REMARKS
COLO. SPRINGS  CLOUDY    20  19  96 S10       30.06F FOG     WCI   9
A. F. ACADEMY  CLOUDY    18  17  93 S14       30.03R WCI   5
ELLICOTT       NOT AVBL
FALCON         SNOW      19  18  96 S15       30.03S VSB 1/4 WCI   4
FORT CARSON    MOCLDY    20  18  91 S10       30.05F WCI   8
LIMON          CLOUDY    21  19  92 S21G29    30.07F WCI   5
MONUMENT HILL  LGT SNOW  18  14  86 S20       29.95S WCI   1
TRINIDAD       FOG       24  23  96 E5        30.06F VSB 3/4 WCI  18
$$

COZ042>045-048>051-090-091-021300-
...NORTHEAST COLORADO...

CITY           SKY/WX    TMP DP  RH WIND       PRES   REMARKS
GREELEY ARPT   PTCLDY    25  16  68 SE7       30.03F WCI  17
AKRON          CLOUDY    26  18  71 S20       30.10F WCI  12
BURLINGTON     CLEAR     23  19  85 S12       30.16F WCI  12
WRAY           CLOUDY    30  20  65 SE14G21   30.19S WCI  19
STERLING       CLOUDY    30  21  69 S14       30.11F WCI  20
HOLYOKE        NOT AVBL
FORT MORGAN    CLOUDY    27  19  70 SE14      30.09F WCI  16
$$

COZ086-089-092>099-021300-
...SOUTHEAST COLORADO...

CITY           SKY/WX    TMP DP  RH WIND       PRES   REMARKS
PUEBLO         CLOUDY    24  22  91 E5        30.12F WCI  18
LA JUNTA       CLOUDY    28  23  81 E8        30.14F WCI  20
LAMAR          CLOUDY    27  24  89 SE9       30.18F WCI  18
SPRINGFIELD      N/A     24  21  88 S13       30.16F WCI  12
$$


USA.gov is the U.S. government's official web portal to all federal, state and local government web resources and services.